Regional Weather Roundup
Issued by NWS Newport/Morehead, NC

Current Version | Previous Version | Text Only | Print | Product List | Glossary Off
Versions: 1 2 3 4 5 6 7 8 9 10 11 12 13 14 15 16 17 18 19 20 21 22 23 24 25 26 27 28 29 30 31 32 33 34 35 36 37 38 39 40 41 42 43 44 45 46 47 48 49 50
000 ASUS42 KMHX 060412 RWRMHX WEATHER ROUNDUP FOR EASTERN NORTH CAROLINA NATIONAL WEATHER SERVICE NEWPORT/MOREHEAD CITY NC 1100 PM EST THU MAR 05 2015 NOTE: "FAIR" INDICATES FEW OR NO CLOUDS BELOW 12,000 FEET WITH NO SIGNIFICANT WEATHER AND/OR OBSTRUCTIONS TO VISIBILITY NCZ015>017-031-032-045>047-102-103-060500- NORTH COAST CITY SKY/WX TMP DP RH WIND PRES REMARKS EDENTON CLOUDY 32 31 94 N15G22 30.31R FOG ELIZABETH CITY LGT SNOW 31 28 89 N22G31 30.30F FOG WCI 18 KITTY HAWK MIX PCPN 31 31 100 N15G29 30.25F MANTEO MIX PCPN 31 30 95 N26G32 30.28S WCI 18 $$ NCZ045>047-081-094-103-104-060500- CENTRAL COAST CITY SKY/WX TMP DP RH WIND PRES REMARKS FRISCO LGT RAIN 35 34 96 N22G37 30.21R SWANQUARTER N/A 32 N/A N/A N9G23 30.24R $$ NCZ095-097-098-100-101-060500- SOUTHERN COAST CITY SKY/WX TMP DP RH WIND PRES REMARKS BEAUFORT RAIN 36 35 96 N15G24 30.25R CEDAR ISLAND N/A 37 N/A N/A N20G36 30.27S JACKSONVILLE LGT RAIN 37 33 85 N20G26 30.27R PINEY ISLAND N/A N/A N/A N/A MISG 30.25R WILMINGTON LGT RAIN 38 36 92 N18G25 30.26R $$ NCZ011>013-027>030-043-044-078>080-089-090>093-098-060500- COASTAL PLAIN CITY SKY/WX TMP DP RH WIND PRES REMARKS AHOSKIE CLOUDY 29 26 88 N13G20 30.36R WCI 19 CLINTON DRIZZLE 35 34 98 N10G16 30.32F ELIZABETHTOWN CLOUDY 36 35 94 N5 30.30R GOLDSBORO CLOUDY 32 32 100 N14G20 30.30R GREENVILLE CLOUDY 32 32 100 N9 30.34R HAVELOCK LGT RAIN 37 33 85 N15G24 30.26R KENANSVILLE CLOUDY 34 32 94 N17G24 30.31R KINSTON CLOUDY 34 31 90 N15G23 30.33R NEW BERN LGT RAIN 35 31 85 N16G26 30.31R RICHLANDS CLOUDY 36 30 80 NW12G20 30.30R ROCKY MOUNT CLOUDY 32 27 81 N15G23 30.34R WASHINGTON CLOUDY 32 31 94 N12G18 30.32R WHITEVILLE CLOUDY 37 34 87 N9G20 30.29R $$ AMZ130-135-150-152-154-156-158-170-250-252-270-ANZ085-086-088-633-658-670-060500- MARINE OBSERVATIONS STATION/POSITION TIME TEMP WIND PRES WAVE SWELL AIR SEA DIR/SP/G HT/PER HT/PER (UTC) (F) (DEG/KT/KT) (MB) (FT/S) (FT/S) CHESAPEAKE LIGHT 0300 28 360/ 27/ 29 1026.5 64 E VA BEACH 0350 36 52 350/ 31/ 37 1023.6 10/ 8 3/14 DUCK 0300 32 36 350/ 32/ 37 1023.8 2 E DUCK 0311 35 N/A 9/ 8 2/11 10 NE DUCK 0322 38 N/A 10/ 8 2/11 OREGON INLET 0300 33 45 350/ 22/ 30 1023.8 HATTERAS CG 0300 51 10/ 27/ 31 1022.7 CAPE LOOKOUT 0400 350/ 24/ 30 1023.5 BEAUFORT LAB 0300 39 49 10/ 18/ 24 1022.0 27 SE WRIGHTSVLE NOT AVBL 5 SE WRIGHTSVLE NOT AVBL 225 S CAPE HAT 0350 74 73 230/ 21/ 25 1019.5 7/ 7 5/ 7 41 SE CHARLESTON 0350 55 68 20/ 23/ 27 1019.8 4/10 3/10 $$

USA.gov is the U.S. government's official web portal to all federal, state and local government web resources and services.